Other Surface Observations
Issued by NWS

Home | Current Version | Previous Version | Text Only | Print | Product List | Glossary On
Versions: 1 2 3 4 5 6 7 8 9 10 11 12 13 14 15 16 17 18 19 20 21 22 23 24 25 26 27 28 29 30 31 32 33 34 35 36 37 38 39 40 41 42 43 44 45 46 47 48 49 50
000
SXUS52 KTAE 011810
OSOTAE
OSOTAE
North Florida/South Alabama/Southwest Georgia Weather Roundup
National Weather Service Tallahassee Florida
200 PM EDT WED APR 01 2015

Note: "fair" indicates few or no clouds below 12,000 feet with no
significant weather and/or obstructions to visibility.

!FLZ017-115-028-034-025-011900
...North Florida...

CITY           SKY/WX    TMP DP  RH WIND       PRES   REMARKS
TALLAHASSEE    PTSUNNY   84  59  42 W8G20     30.06F
APALACHICOLA   MOSUNNY   83  62  49 W18G25    30.09F
PERRY          PTSUNNY   78  65  63 S10G17    30.08F
CROSS CITY       N/A     81  63  54 W10       30.08F
JACKSONVILLE   PTSUNNY   82  62  50 W10       30.03F
$$

!FLZ112-006-005-002-011-011900
...Florida Panhandle...

CITY           SKY/WX    TMP DP  RH WIND       PRES   REMARKS
MARIANNA       MOSUNNY   81  61  50 W10       30.06F
BONIFAY        FAIR      81  57  43 VRB3      30.08F
PANAMA CITY NW FAIR      81  58  45 SW23      30.08F
TYNDALL AFB    SUNNY     77  64  63 W13       30.11S
TYND DRONE APT FAIR      74  65  73 W9        30.11S
DE FUNIAK SPR  FAIR      81  50  33 W6        30.09F
EGLIN AFB      MOSUNNY   76  64  64 SW16      30.09F
DESTIN         FAIR      76  65  68 SW8       30.10F
HURLBURT       NOT AVBL
CRESTVIEW      SUNNY     82  54  37 W10G16    30.10F
PENSACOLA      PTSUNNY   79  62  56 SW13G20   30.09F
$$

!ALZ063-066-011900
...South Alabama...

CITY           SKY/WX    TMP DP  RH WIND       PRES   REMARKS
DOTHAN         MOSUNNY   80  57  45 VRB3      30.10F
OZARK CAIRNS   MOSUNNY   81  57  43 S8        30.06F
FT RUCKER HELI SUNNY     81  58  45 CALM      30.05F
RUCKER HELI 3  NOT AVBL
RUCKER HELI 2  FAIR      82  57  42 VRB7      30.05F
FLORALA APT    MOSUNNY   81  54  39 VRB6      30.09F
ANDALUSIA      MOSUNNY   85  56  37 W7        30.07F
TROY           SUNNY     84  57  39 VRB3      30.07F
EUFALA         FAIR      84  53  34 VRB5      30.05F
MOBILE         PTSUNNY   79  58  48 VRB6      30.10F
$$

!GAZ120>161-011900
...Southwest and South Central Georgia...

CITY           SKY/WX    TMP DP  RH WIND       PRES   REMARKS
THOMASVILLE    FAIR      81  55  41 NW9       30.08F
BAINBRIDGE     SUNNY     84  59  42 NW5       30.07F
MOODY AFB      MOSUNNY   81  58  44 W10G18    30.04F
VALDOSTA       MOSUNNY   82  59  45 VRB3      30.06F
MOULTRIE       SUNNY     81  55  41 NW12      30.07F
BLAKELY        MOSUNNY   82  59  44 SW3       30.07F
ALBANY         SUNNY     81  51  35 VRB7G26   30.08F
TIFTON         FAIR      77  53  42 NW10      30.06F
FITZGERALD     FAIR      78  52  39 NW5       30.08F
CORDELE        FAIR      78  51  38 CALM      30.07F
AMERICUS       FAIR      77  52  41 W7        30.08F
HOMERVILLE     PTSUNNY   82  59  44 W10G22    30.05F
$$

!GMZ750-755-770-775-011900
...Coastal and Buoy Obs...

STATION/POSITION TIME  TEMP    WIND        PRES    VSBY  WAVE
                       AIR SEA DIR/SP/G                  HT/PER
                 (UTC) (F)     (DEG/KT/KT) (MB)    (MI)  (FT/S)
KEATON BEACH     1800   69     240/ 13/ 13 1019.2F
CEDAR KEY        1800   71     250/ 12/ 15 1019.9F
C TOWER          1800   69     290/ 11/ 11 1019.7F
APALACHICOLA BUO 1750   71 70  220/ 10/ 12 1020.1F         2/ 5
PANAMA CITY BUOY 1750   74 75  220/ 12/ 14 1020.0F         2/ 5
MOBILE BUOY      1750   72 74  140/  6/  8 1020.2F         2/ 7
ORANGE BCH AL BU 1750   71 72  200/  6/  6 1019.1F         2/ 5
$$



USA.gov is the U.S. government's official web portal to all federal, state and local government web resources and services.